Content
SEND FEEDBACK

Daily
Averages
Monthly
Summary
United States of America

ST. LOUIS, MISSOURI


Home > North America > United States > Missouri
Elevation: 535 feet     Latitude: 38 45N     Longitude: 090 22W

WEATHER
 
SELECT A DAY
Number of Records: 196,619;   Date Range: 1/1/95 - 9/16/14
 
SHARE

PRINT THIS DATA

[ ← Previous Day ]
WEATHER ALMANAC - FEBRUARY 23, 2013
[ Next Day → ]
[ °C ]   °F
Weather ElementAverageHighLow
Temperature22.3 °F35.1 °F (3:54 pm)9 °F (3:54 am)
Dewpoint14.5 °F19.9 °F (4:54 pm)6.1 °F (3:54 am)
Humidity73.9 %92 % (7:54 am)52 % (1:54 pm)
Barometer30.07 in30.10 in (1:54 am)30.02 in (2:54 pm)
Wind Speed2.6 mph10.4 mph (1:54 pm)
Weather ElementAverage
Visibility8.1 mi
Wind DirectionESE (107.8 °)

Weather ElementTotal
Precipitation---
Heating Degree Days43 (Base 65)
Averaged from 23 records on February 23, 2013
WEATHER CONDITIONS BREAKOUT
WIND DIRECTION BREAKOUT
WEATHER BY HOUR - FEBRUARY 23, 2013
[ °C ]   °F
Local TimeTemperatureDewpointHumidityBarometerVisibilityWind DirectionWind SpeedGust SpeedPrecipitationEventsConditions
1:54 AM12.0 °F9.0 °F88 %30.10 in8.0 miWest (260°)3.5 mphClear
2:54 AM12.9 °F9.0 °F84 %30.09 in7.0 miCalmClear
3:54 AM9.0 °F6.1 °F88 %30.09 in7.0 miWSW (250°)5.8 mphClear
4:54 AM12.0 °F9.0 °F88 %30.08 in5.0 miCalmClear
5:54 AM10.9 °F8.1 °F88 %30.08 in5.0 miCalmClear
6:54 AM10.9 °F8.1 °F88 %30.09 in4.0 miCalmClear
7:54 AM10.0 °F8.1 °F92 %30.10 in4.0 miCalmClear
8:54 AM17.1 °F15.1 °F92 %30.09 in5.0 miSW (230°)3.5 mphPartly Cloudy
9:54 AM25.0 °F18.0 °F75 %30.09 in10.0 miCalmClear
10:54 AM28.0 °F17.1 °F63 %30.08 in10.0 miCalmClear
11:54 AM30.0 °F17.1 °F59 %30.08 in10.0 miWSW (240°)4.6 mphPartly Cloudy
12:54 PM32.0 °F17.1 °F54 %30.06 in10.0 miWSW (250°)3.5 mphPartly Cloudy
1:54 PM33.1 °F17.1 °F52 %30.04 in10.0 miWSW (240°)10.4 mphPartly Cloudy
2:54 PM34.0 °F18.0 °F52 %30.02 in10.0 miWSW (250°)9.2 mphPartly Cloudy
3:54 PM35.1 °F19.0 °F52 %30.03 in10.0 miWest (260°)8.1 mphPartly Cloudy
4:54 PM35.1 °F19.9 °F54 %30.03 in10.0 miWSW (250°)6.9 mphPartly Cloudy
5:54 PM32.0 °F19.0 °F59 %30.04 in10.0 miCalmClear
6:54 PM28.0 °F19.0 °F69 %30.06 in10.0 miCalmClear
7:54 PM26.1 °F19.0 °F75 %30.06 in10.0 miCalmClear
8:54 PM23.0 °F17.1 °F78 %30.06 in9.0 miCalmClear
9:54 PM19.9 °F16.0 °F85 %30.05 in9.0 miCalmClear
10:54 PM18.0 °F14.0 °F84 %30.06 in7.0 miWSW (250°)4.6 mphClear
11:54 PM18.0 °F12.9 °F81 %30.07 in7.0 miCalmClear
Hourly data recorded from KSUS, located miles away from St. Louis, Missouri







STORIES FROM OUR PARTNERS